TimeCST,TemperatureF,Dew PointF,Humidity,Sea Level PressureIn,VisibilityMPH,Wind Direction,Wind SpeedMPH,Gust SpeedMPH,PrecipitationIn,Events,Conditions,WindDirDegrees,DateUTC
12:53 AM,54.0,52.0,93,30.06,10.0,Calm,Calm,-,N/A,,Clear,0,2013-02-07 06:53:00
1:53 AM,55.0,54.0,96,30.04,10.0,Calm,Calm,-,N/A,,Partly Cloudy,0,2013-02-07 07:53:00
2:34 AM,55.4,53.6,94,30.03,10.0,Calm,Calm,-,N/A,,Mostly Cloudy,0,2013-02-07 08:34:00
2:53 AM,55.9,55.0,97,30.03,10.0,Calm,Calm,-,N/A,,Overcast,0,2013-02-07 08:53:00
3:53 AM,57.9,55.9,93,30.01,10.0,Calm,Calm,-,N/A,,Overcast,0,2013-02-07 09:53:00
4:26 AM,57.2,55.4,94,30.00,10.0,ENE,5.8,-,N/A,,Overcast,70,2013-02-07 10:26:00
4:53 AM,59.0,55.9,90,29.99,10.0,East,6.9,-,N/A,,Overcast,80,2013-02-07 10:53:00
5:26 AM,59.0,57.2,94,30.01,8.0,Calm,Calm,-,0.01,Rain,Light Rain,0,2013-02-07 11:26:00
5:53 AM,59.0,57.0,93,30.00,7.0,Calm,Calm,-,0.02,Rain,Light Rain,0,2013-02-07 11:53:00
6:53 AM,57.9,57.0,97,29.97,4.0,East,4.6,-,0.04,Rain,Light Rain,100,2013-02-07 12:53:00
7:28 AM,57.2,57.2,100,29.95,4.0,East,5.8,-,0.01,,Overcast,90,2013-02-07 13:28:00
7:49 AM,59.0,57.2,94,29.97,5.0,Calm,Calm,-,0.01,Rain,Light Rain,0,2013-02-07 13:49:00
7:53 AM,59.0,57.9,96,29.96,6.0,East,3.5,-,0.01,Rain,Light Rain,100,2013-02-07 13:53:00
8:53 AM,60.1,60.1,100,29.91,3.0,East,3.5,-,0.03,Rain,Light Rain,90,2013-02-07 14:53:00
9:37 AM,62.6,60.8,94,29.90,3.0,East,4.6,-,0.04,Rain,Rain,100,2013-02-07 15:37:00
9:50 AM,62.6,60.8,94,29.89,5.0,ESE,6.9,-,0.06,Rain,Light Rain,110,2013-02-07 15:50:00
9:53 AM,62.1,60.1,93,29.89,6.0,East,3.5,-,0.06,Rain,Light Rain,100,2013-02-07 15:53:00
10:03 AM,62.6,60.8,94,29.91,2.5,South,3.5,-,0.04,Rain,Rain,180,2013-02-07 16:03:00
10:11 AM,62.6,60.8,94,29.89,1.2,East,3.5,-,0.12,Rain,Heavy Rain,100,2013-02-07 16:11:00
10:21 AM,62.6,60.8,94,29.89,1.2,ESE,4.6,-,0.21,Rain,Heavy Rain,110,2013-02-07 16:21:00
10:53 AM,63.0,62.1,97,29.84,1.2,East,8.1,-,0.44,Rain,Heavy Rain,100,2013-02-07 16:53:00
11:02 AM,62.6,62.6,100,29.83,1.5,ESE,10.4,17.3,0.04,Rain,Rain,110,2013-02-07 17:02:00
11:05 AM,64.4,62.6,94,29.84,3.0,ESE,8.1,17.3,0.04,Rain,Light Rain,120,2013-02-07 17:05:00
11:10 AM,64.4,62.6,94,29.84,8.0,ESE,5.8,19.6,0.04,Rain,Light Rain,110,2013-02-07 17:10:00
11:20 AM,64.4,62.6,94,29.83,2.5,Variable,3.5,-,0.09,Rain,Heavy Rain,0,2013-02-07 17:20:00
11:29 AM,64.4,62.6,94,29.83,1.8,SSE,9.2,-,0.14,Rain,Heavy Rain,160,2013-02-07 17:29:00
11:36 AM,64.4,62.6,94,29.81,3.0,SSE,11.5,21.9,0.15,Rain-Thunderstorm,Light Rain,160,2013-02-07 17:36:00
11:46 AM,64.4,64.4,100,29.81,4.0,South,12.7,19.6,0.16,Rain,Rain,170,2013-02-07 17:46:00
11:53 AM,66.0,64.0,93,29.82,3.0,South,15.0,20.7,0.18,Rain,Rain,180,2013-02-07 17:53:00
12:19 PM,66.2,64.4,94,29.80,9.0,SW,5.8,-,0.02,Rain,Light Rain,220,2013-02-07 18:19:00
12:39 PM,66.2,64.4,94,29.79,2.5,South,13.8,21.9,0.11,Rain,Heavy Rain,190,2013-02-07 18:39:00
12:41 PM,66.2,64.4,94,29.80,1.2,SW,12.7,21.9,0.19,Rain,Heavy Rain,230,2013-02-07 18:41:00
12:44 PM,66.2,64.4,94,29.80,0.8,WNW,23.0,38.0,0.26,Rain,Heavy Rain,290,2013-02-07 18:44:00
12:50 PM,62.6,60.8,94,29.80,0.2,North,21.9,38.0,0.69,Fog-Rain,Heavy Rain,360,2013-02-07 18:50:00
12:53 PM,62.1,61.0,96,29.79,0.2,WNW,15.0,38.0,0.89,Fog-Rain,Heavy Rain,300,2013-02-07 18:53:00
1:00 PM,62.6,60.8,94,29.81,0.5,NNW,15.0,21.9,0.03,Fog-Rain,Rain,330,2013-02-07 19:00:00
1:03 PM,60.8,60.8,100,29.81,1.8,North,10.4,21.9,0.06,Rain,Heavy Rain,350,2013-02-07 19:03:00
1:05 PM,60.8,60.8,100,29.81,3.0,North,11.5,21.9,0.07,Rain,Heavy Rain,350,2013-02-07 19:05:00
1:09 PM,60.8,60.8,100,29.79,1.8,North,21.9,27.6,0.15,Rain,Heavy Rain,10,2013-02-07 19:09:00
1:21 PM,60.8,60.8,100,29.81,1.8,NNW,9.2,-,0.27,Rain,Light Rain,340,2013-02-07 19:21:00
1:23 PM,60.8,60.8,100,29.80,4.0,North,8.1,-,0.27,Rain,Light Rain,350,2013-02-07 19:23:00
1:53 PM,61.0,60.1,97,29.79,10.0,North,10.4,-,0.28,Rain,Light Rain,360,2013-02-07 19:53:00
2:15 PM,60.8,60.8,100,29.80,5.0,NNW,12.7,-,0.07,Rain,Rain,330,2013-02-07 20:15:00
2:29 PM,60.8,60.8,100,29.80,2.5,North,11.5,-,0.14,Rain,Heavy Rain,350,2013-02-07 20:29:00
2:34 PM,60.8,60.8,100,29.80,3.0,North,11.5,-,0.14,Rain,Light Rain,360,2013-02-07 20:34:00
2:53 PM,62.1,61.0,96,29.80,10.0,North,10.4,-,0.15,Rain,Light Rain,10,2013-02-07 20:53:00
3:53 PM,62.1,60.1,93,29.80,10.0,NNE,6.9,-,0.00,,Overcast,30,2013-02-07 21:53:00
4:09 PM,62.6,59.0,88,29.81,10.0,NE,4.6,-,N/A,,Scattered Clouds,40,2013-02-07 22:09:00
4:53 PM,62.1,59.0,90,29.83,10.0,North,5.8,-,N/A,,Partly Cloudy,360,2013-02-07 22:53:00
5:06 PM,62.6,59.0,88,29.84,10.0,NNW,4.6,-,N/A,,Mostly Cloudy,330,2013-02-07 23:06:00
5:45 PM,60.8,59.0,94,29.86,10.0,NNW,5.8,-,N/A,,Overcast,340,2013-02-07 23:45:00
5:53 PM,61.0,59.0,93,29.86,10.0,NNW,5.8,-,N/A,,Overcast,330,2013-02-07 23:53:00
6:04 PM,60.8,59.0,94,29.87,10.0,NNW,4.6,-,N/A,,Overcast,340,2013-02-08 00:04:00
6:53 PM,60.1,57.0,90,29.88,10.0,Calm,Calm,-,N/A,,Clear,0,2013-02-08 00:53:00
7:53 PM,57.9,55.9,93,29.90,10.0,North,5.8,-,N/A,,Clear,10,2013-02-08 01:53:00
8:19 PM,57.2,55.4,94,29.91,10.0,North,8.1,-,N/A,,Mostly Cloudy,10,2013-02-08 02:19:00
8:53 PM,57.0,55.0,93,29.92,10.0,North,9.2,-,N/A,,Overcast,10,2013-02-08 02:53:00
9:31 PM,57.2,55.4,94,29.92,10.0,NNE,8.1,-,N/A,,Overcast,20,2013-02-08 03:31:00
9:53 PM,55.9,54.0,93,29.93,10.0,North,5.8,-,N/A,,Overcast,360,2013-02-08 03:53:00
10:18 PM,55.4,53.6,94,29.94,10.0,Calm,Calm,-,N/A,,Mostly Cloudy,0,2013-02-08 04:18:00
10:53 PM,55.9,54.0,93,29.94,10.0,Calm,Calm,-,N/A,,Overcast,0,2013-02-08 04:53:00
11:12 PM,55.4,53.6,94,29.94,10.0,Calm,Calm,-,N/A,,Overcast,0,2013-02-08 05:12:00
11:46 PM,55.4,53.6,94,29.94,10.0,Calm,Calm,-,N/A,,Overcast,0,2013-02-08 05:46:00
11:53 PM,55.9,55.0,97,29.94,10.0,Calm,Calm,-,N/A,,Overcast,0,2013-02-08 05:53:00